Regional Weather Roundup
Issued by NWS Charleston, SC

Current Version | Previous Version | Graphics & Text | Print | Product List | Glossary On
Versions: 1 2 3 4 5 6 7 8 9 10 11 12 13 14 15 16 17 18 19 20 21 22 23 24 25 26 27 28 29 30 31 32 33 34 35 36 37 38 39 40 41 42 43 44 45 46 47 48 49 50
378
ASUS42 KCHS 260627
RWRCHS

REGIONAL WEATHER ROUNDUP
NATIONAL WEATHER SERVICE CHARLESTON SC
200 AM EDT TUE SEP 26 2017

NOTE: "FAIR" INDICATES FEW OR NO CLOUDS BELOW 12,000 FEET WITH NO
SIGNIFICANT WEATHER AND/OR OBSTRUCTIONS TO VISIBILITY.

NOT ALL STATIONS ARE QUALITY CONTROLLED. USE DATA WITH CAUTION...
ESPECIALLY DEWPOINT OBSERVATIONS.

SCZ027-030-031-034>040-042>050-260700-
...SOUTHEAST SOUTH CAROLINA...

CITY           SKY/WX    TMP DP  RH WIND       PRES   REMARKS
N CHARLESTON   MOCLDY    73  69  87 N7        29.87S
6HR MIN TEMP:  73; 6HR MAX TEMP:  77;

WATERFRONT PRK   N/A     77  70  79 NW5       29.71F
JOHNS ISLAND   CLOUDY    73  70  88 NW5       29.87S
PINOPOLIS        N/A     77  72  83 N9        29.81S
MONCKS CORNER  FAIR      73  68  83 CALM      29.87F
SUMMERVILLE    FAIR      70  68  94 N3        29.88F
BEAUFORT MCAS  CLEAR     73  71  93 NW5       29.89S
6HR MIN TEMP:  71; 6HR MAX TEMP:  77;

BEAUFORT ARPT  FAIR      72  70  94 NW5       29.88S
HILTON HEAD IS MOCLDY    75  72  88 CALM      29.89S
WALTERBORO     CLEAR     68  66  94 CALM      29.90S
ALLENDALE      NOT AVBL

...SOUTHERN MIDLANDS AND PEE DEE...

CITY           SKY/WX    TMP DP  RH WIND       PRES   REMARKS
GEORGETOWN     FAIR      70  70 100 NW5       29.85F
KINGSTREE      FAIR      68  66  94 NW5       29.87F
ORANGEBURG     CLOUDY    74  67  78 N3        29.91F
6HR MIN TEMP:  68; 6HR MAX TEMP:  77;

BARNWELL       FAIR      68  68 100 CALM      29.91F
AIKEN          FAIR      64  63  94 CALM      29.96F
MANNING        MOCLDY    70  66  88 MISG      29.89S
COLUMBIA       CLOUDY    75  68  78 W5        29.91F
6HR MIN TEMP:  73; 6HR MAX TEMP:  83;

SUMTER         PTCLDY    72  66  80 NW6       29.88S
6HR MIN TEMP:  71; 6HR MAX TEMP:  77;

FLORENCE       CLEAR     72  68  87 N6        29.88F
6HR MIN TEMP:  72; 6HR MAX TEMP:  75;

MYRTLE BEACH   PTCLDY    73  69  87 N7        29.85S
N MYRTLE BEACH CLEAR     74  69  85 N7        29.82F
6HR MIN TEMP:  74; 6HR MAX TEMP:  76;


$$

GAZ063-065-086>088-099>101-113>116-118-119-134>141-150-260700-
...SOUTHEAST GEORGIA...

CITY           SKY/WX    TMP DP  RH WIND       PRES   REMARKS
SAVANNAH ARPT  CLEAR     69  67  93 N5        29.90S
6HR MIN TEMP:  69; 6HR MAX TEMP:  79;

HUNTER AAF     CLEAR     72  68  86 NW5       29.87S
6HR MIN TEMP:  69; 6HR MAX TEMP:  80; 6HR PCP: TRACE;

FORT STEWART   CLEAR     69  66  91 CALM      29.88S
6HR MIN TEMP:  69; 6HR MAX TEMP:  77; 6HR PCP: TRACE;

STATESBORO     MOCLDY    68  68 100 CALM      29.91S
SYLVANIA       CLEAR     67  67 100 CALM      29.92S
CLAXTON        FAIR      67  66  97 CALM      29.91S

...CSRA...CENTRAL AND FAR SOUTHEAST GEORGIA...

CITY           SKY/WX    TMP DP  RH WIND       PRES   REMARKS
THOMSON        CLEAR     65  63  94 N3        29.99S
AUGUSTA-BUSH     N/A    N/A N/A N/A MISG        N/A
AUGUSTA-DANIEL CLEAR     75  66  73 NW3       29.93F
SWAINSBORO     FAIR      66  66 100 CALM      29.93S
VIDALIA        CLEAR     68  66  94 CALM      29.92S
EASTMAN        FAIR      66  66 100 CALM      29.95F
HAZLEHURST     FAIR      69  66  92 CALM      29.91S
ALMA           CLEAR     67  64  90 CALM      29.91S
6HR MIN TEMP:  66; 6HR MAX TEMP:  75;

WAYCROSS       CLEAR     68  65  90 CALM      29.91S
JESUP          NOT AVBL
BAXLEY         FAIR      64  64 100 CALM      29.91S
BRUNSWICK        N/A     70  68  94 CALM      29.90S FOG
SAINT SIMONS   CLEAR     74  72  93 CALM      29.89S
6HR MIN TEMP:  73; 6HR MAX TEMP:  79;


$$

SCZ027-028-034-036>038-045-046-048>050-GAZ119-141-260700-
...LAKE AND SUPPLEMENTAL COASTAL OBSERVATIONS...

STATION/POSITION TIME  TEMP    WIND        PRES    WAVE   SWELL
                       AIR SEA DIR/SP/G            HT/PER HT/PER/DIR
                 (UTC) (F)     (DEG/KT/KT) (MB)    (FT/S) (FT/S/D)
WINYAH BAY       0545   73     330/  5     1011.0S
LAKE MURRAY      0530   73      CALM  /  2 1012.9S
ACE BASIN NERRS  0545   72        CALM     1012.0S
FORT PULASKI     0600   74 81  340/  5/  6 1012.3
SAPELO ISLAND    0600   75        CALM     1012.0

$$

ANZ835-935-AMZ111-154-330-350-352-354-370-450-454-472-260700-
...C-MAN AND BUOY OBSERVATIONS...

STATION/POSITION TIME  TEMP    WIND        PRES    WAVE   SWELL
                       AIR SEA DIR/SP/G            HT/PER HT/PER/DIR
                 (UTC) (F)     (DEG/KT/KT) (MB)    (FT/S) (FT/S/D)
BUOY 41004       0600   78 81  350/ 14/ 17 1009.6
BUOY 41008       0550   80 80   20/ 10/ 10 1011.4F   4/11   3/100/11
FOLLY BEACH CMAN 0600   77     350/  6/  8 1011.8F
CAPERS NEARSHORE 0608   74 80  360/ 12/ 16 1010.6F
FRIPP NEARSHORE  0608   78      20/  8/ 12 1017.4R


STATION/POSITION TIME  TEMP    WIND        PRES    WAVE   SWELL
                       AIR SEA DIR/SP/G            HT/PER HT/PER/DIR
                 (UTC) (F)     (DEG/KT/KT) (MB)    (FT/S) (FT/S/D)
5E ST. MARYS GA  0530      81                N/A     5/13   3/ 90/13
FRYING PAN BUOY  0600   78 81   10/ 23/ 29 1007.3
BUOY 41025       0550   77 77   20/ 23/ 31 1005.3F  17/13  16/140/13
CAPE LOOKOUT NC  0600   74     360/ 22/ 26 1007.2F
BUOY 41002       0550   80 81  320/ 37/ 47  993.4R  19/11
BUOY 41010       0610          330/ 12/ 16 1009.8
ST AUGUSTINE FL  0600   79 82  360/  5/  6 1012.0F


$$




USA.gov is the U.S. government's official web portal to all federal, state and local government web resources and services.